TITAN 3C TRANSTAGE DEB, 3494

Orbit data source: Space-Track

TITAN 3C TRANSTAGE DEB, 3494 is space debris in LEO originally from a launch on Fri, 15 Oct 1965 UTC launched from the Air Force Eastern Test Range (AFETR). Debris objects in space refer to the collection of defunct objects orbiting the Earth. Examples of debris include non-operational satellites, rocket bodies, and fragments generated from explosions, collisions, or faulty payload assembly.

Loading next visibility...
Identifier
3494, 1965-082QQ
Orbit
LEO
Country
Flag of USUS
Related business
Manufacturer
Unknown
Mission
Spacecraft
Bus & Motor
Unknown
Mass
Unknown
Launch date (UTC)
1965-10-15 (61 years ago)
Launch vehicle
Unknown
Launch site
Air Force Eastern Test Range (AFETR)
Object type
Payload
Rocket body
Debris
Shape & HBR
Unknown shape, 0.1 m
Radar Cross Section
Medium (>0.1 m² and <1 m²)

Expand to show TLE details & history
Last TLE update: 1 day ago

TLE from 1 day ago
0 TITAN 3C TRANSTAGE DEB
1 03494U 65082QQ  26252.95607687  .00000425  00000-0  74244-4 0  9992
2 03494  31.8921 348.1868 0026835 172.5435 187.5608 14.62139256217863
Epoch: 2026-09-09T22:56Z
TLE epoch observation values (Epoch: 2026-09-09T22:56:45.041Z)
Latitude
-0.00004°
Longitude
14.99836°
Altitude
703.69 km
Speed
7.496 km/s
True Right ascension
23h 12m 44s
True Declination
0° 00' 00"
Sunlit
Object was in full shadow at epoch
Visualization orbit readout
Latitude
Unknown
Longitude
Unknown
Altitude
Unknown
Speed
Unknown
Apparent Right ascension
Unknown
Apparent Declination
Unknown
Sunlit
N/A
Visualization observer readout
Local Sidereal Time
01:43:26
Azimuth
Unknown
Elevation
Unknown
Doppler factor
Unknown
Orbital elements
Apogee altitude
708.872 km
Perigee altitude
670.938 km
Semi-major axis
7,068.042 km
Eccentricity
0.00268
Inclination
31.8921°
RAAN
348.1868°
Arg. of periapsis
172.5435°
True anomaly
187.52047°
Mean anomaly
187.5608°
Eccentric anomaly
187.54062°
Mean motion
3.65254 °/min
Orbital period
98.56 mins
BSTAR
0.000074244

Documentation

Showing up to 5 results
|